Dillon, MT

7:20 PM MDT on August 23, 2017 (GMT -0600)
Dillon

Weather History for KDLN - October, 2011

Change the Weather History Date:

Saturday, October 1, 2011

  Actual Average Record
Temperature  
Mean Temperature 66 °F 49 °F  
Max Temperature 83 °F 63 °F 83 °F (1957)
Min Temperature 48 °F 35 °F 15 °F (1950)
Degree Days  
Heating Degree Days 0    
Month to date heating degree days 0  
Since 1 July heating degree days 226  
Cooling Degree Days 1    
Month to date cooling degree days 1  
Year to date cooling degree days 140  
Growing Degree Days 16 (Base 50)    
Moisture  
Dew Point 34 °F    
Average Humidity 33    
Maximum Humidity 50    
Minimum Humidity 16    
Precipitation  
Precipitation 0.00 in 0.03 in 0.58 in (2016)
Month to date precipitation 0.00 0.03  
Year to date precipitation 7.50 9.20  
Snow  
Snow 0.00 in - - ()
Snow Depth 0.00 in    
Sea Level Pressure  
Sea Level Pressure 29.87 in    
Wind  
Wind Speed 11 mph (South)    
Max Wind Speed 25 mph    
Max Gust Speed 35 mph    
Visibility 10 miles    
Events Thunderstorm    
T = Trace of Precipitation, MM = Missing Value Source: NWS Daily Summary

Daily Weather History Graph

Daily Weather History Graph

Search for Another Location

Airport or City:

Trip Planner

Search our weather history database for the weather conditions in past years. The results will help you decide how hot, cold, wet, or windy it might be!

Date:

Astronomy

Oct. 01, 2011 Rise Set
Actual Time 7:28 AM MDT 7:10 PM MDT
Civil Twilight 6:58 AM MDT 7:40 PM MDT
Nautical Twilight 6:24 AM MDT 8:14 PM MDT
Astronomical Twilight 5:49 AM MDT 8:49 PM MDT
Moon 12:54 PM MDT (10/1) 9:55 PM MDT (10/1)
Length of Visible Light 12h 41m
Length of Day
11h 42m
Waxing Crescent, 25% of the Moon is Illuminated
Oct 1
Waxing Crescent
Oct 3
First Quarter
Oct 11
Full
Oct 19
Last Quarter
Oct 26
New

Hourly Weather History & Observations

Time (MDT) Temp. Dew Point Humidity Pressure Visibility Wind Dir Wind Speed Gust Speed Precip Events Conditions
12:53 AM 57.0 °F 30.0 °F 36% 29.89 in 10.0 mi Calm Calm - N/A   Clear
1:53 AM 55.0 °F 30.0 °F 38% 29.88 in 10.0 mi SSE 8.1 mph - N/A   Clear
2:53 AM 57.0 °F 30.9 °F 37% 29.88 in 10.0 mi South 5.8 mph - N/A   Clear
4:53 AM 51.1 °F 33.1 °F 50% 29.88 in 10.0 mi SW 9.2 mph - N/A   Clear
5:53 AM 52.0 °F 30.9 °F 45% 29.90 in 10.0 mi South 8.1 mph - N/A   Clear
6:53 AM 51.1 °F 32.0 °F 48% 29.92 in 10.0 mi South 10.4 mph - N/A   Clear
9:53 AM 55.0 °F 34.0 °F 45% 29.95 in 10.0 mi SSW 4.6 mph - N/A   Clear
10:53 AM 66.9 °F 33.1 °F 28% 29.91 in 10.0 mi Calm Calm - N/A   Clear
11:53 AM 71.1 °F 37.0 °F 29% 29.88 in 10.0 mi Variable 3.5 mph - N/A   Clear
12:53 PM 82.0 °F 32.0 °F 16% 29.84 in 10.0 mi South 20.7 mph 27.6 mph N/A   Partly Cloudy
1:53 PM 82.0 °F 32.0 °F 16% 29.83 in 10.0 mi South 20.7 mph 27.6 mph N/A   Partly Cloudy
2:53 PM 80.1 °F 32.0 °F 17% 29.81 in 9.0 mi South 18.4 mph 29.9 mph N/A   Scattered Clouds
3:06 PM 80.6 °F 32.0 °F 17% 29.97 in 10.0 mi South 18.4 mph 28.8 mph N/A Thunderstorm Clear
3:21 PM 80.6 °F 32.0 °F 17% 29.97 in 4.0 mi South 21.9 mph 34.5 mph N/A   Haze
3:53 PM 78.1 °F 33.1 °F 19% 29.81 in 10.0 mi South 17.3 mph 29.9 mph N/A   Mostly Cloudy
4:53 PM 80.1 °F 34.0 °F 19% 29.82 in 10.0 mi SSW 16.1 mph 29.9 mph N/A   Partly Cloudy
5:53 PM 77.0 °F 34.0 °F 21% 29.81 in 10.0 mi SSW 20.7 mph 27.6 mph N/A   Clear
6:53 PM 71.1 °F 35.1 °F 27% 29.84 in 10.0 mi South 12.7 mph - N/A   Partly Cloudy
7:53 PM 72.0 °F 34.0 °F 25% 29.84 in 10.0 mi South 13.8 mph 21.9 mph N/A   Clear
8:53 PM 68.0 °F 34.0 °F 28% 29.85 in 10.0 mi South 10.4 mph - N/A   Clear
9:53 PM 68.0 °F 34.0 °F 28% 29.87 in 10.0 mi South 9.2 mph - N/A   Partly Cloudy
10:53 PM 64.0 °F 41.0 °F 43% 29.89 in 10.0 mi WSW 12.7 mph 24.2 mph N/A   Overcast
11:53 PM 63.0 °F 42.1 °F 46% 29.88 in 10.0 mi South 11.5 mph - N/A   Mostly Cloudy